Location: Rounton
(54.4000°N, 1.3500°W)
Time: 22:04:07
(UTC+00:00)

Tiros 1 despin weight - Pass Details

Date: 08 December 2021
Orbit: 592 x 641 km, 48.2° (Epoch: 16 January)

Event Time Altitude Azimuth Distance (km) Brightness Sun altitude
Rises 14:43:57 0° 260° (W) 2,835 ? 5.0°
Reaches altitude 10° 14:46:21 10° 252° (WSW) 1,928 ? 4.7°
Maximum altitude 14:50:24 36° 186° (S) 946 ? 4.4°
Drops below altitude 10° 14:54:25 10° 120° (ESE) 1,921 ? 4.0°
Sets 14:56:50 0° 112° (ESE) 2,823 ? 3.8°
